COSMOS 1854

导读

COSMOS 1854(宇宙1854)是苏联/俄罗斯“宇宙号”卫星家族的成员,于1987年6月16日由独立国家联合体(CIS)前身苏联发射。宇宙号系列是世界上最庞大的人造卫星家族,编号超2450颗,多数为军用卫星,混编试验任务航天器与失败探测器,覆盖多类航天任务。

基本信息
目录编号:
18115
目录名称:
COSMOS 1854
国际标识:
1987-051C
轨道中心:
EARTH
卫星名称:
COSMOS 1854
卫星全名:
--
卫星状态:
在轨 (已飞行14246 天)
发射日期:
1987-06-16 UTC
国别 :
俄罗斯(独联体) (CIS)
星等 :
--
轨道信息
数据来源 国际轨道数据 AOE轨道数据
星历时间 2026-06-17T20:06:00+0800
4小时前
查看轨道信息
2026-06-14T01:00:00+0800
3天前
查看轨道信息
半长轴 7847.538km 7847.541km
偏心率 0.0014004 0.0013815
轨道倾角 74.005° 74.004°
近地点辐角 63.464° 68.520°
升交点赤经 344.412° 349.453°
平近点角 0.401° 215.780°
近地点 1458.411km 1458.562km
远地点 1480.391km 1480.246km
周期 115.308分钟 115.308分钟
每日圈数 12.48828 12.488275
详细信息
使用方式:
暂无
2D轨道图
3D轨道图
轨道高度分析图
轨道倾角分析图
轨道综合分析图
查看轨道综合分析图